Location: Bittelbronn
(48.4454°N, 8.5870°E)
Time: 17:36:38
(UTC+00:00)

Cosmos 2151 Rocket - Pass Details

Date: 23 May 2024
Orbit: 614 x 639 km, 82.5° (Epoch: 16 June)

Event Time Altitude Azimuth Distance (km) Brightness Sun altitude
Rises 02:34:15 0° 347° (NNW) 2,944 7.5 -8.7°
Reaches altitude 10° 02:36:32 10° 344° (NNW) 2,027 6.6 -8.5°
Maximum altitude 02:40:58 63° 264° (W) 707 3.6 -7.9°
Drops below altitude 10° 02:45:20 10° 184° (S) 1,994 5.7 -7.4°
Sets 02:47:33 0° 181° (S) 2,892 6.6 -7.1°
